| time (UTC) | temp C | wind direction | speed KPH | gust KPH | rain 1hr cm | rain 24hr cm | rain mn cm | humidity % | barometer mb |
| 20260509191733 | 31 | 270 | 1.6 | 4.8 | 0.00 | 0.00 | 0.00 | 62 | 1007.0 |
| 20260509185733 | 29 | 247 | 0.0 | 4.8 | 0.00 | 0.00 | 0.00 | 68 | 1007.2 |
| 20260509184733 | 29 | 247 | 1.6 | 6.4 | 0.00 | 0.00 | 0.00 | 66 | 1007.5 |
| 20260509183833 | 30 | 271 | 4.8 | 6.4 | 0.00 | 0.00 | 0.00 | 66 | 1007.4 |
| 20260509182833 | 29 | 301 | 0.0 | 4.8 | 0.00 | 0.00 | 0.00 | 68 | 1007.6 |
| 20260509181833 | 28 | 261 | 6.4 | 9.7 | 0.00 | 0.00 | 0.00 | 68 | 1007.9 |
| 20260509181734 | 28 | 247 | 8.0 | 11.3 | 0.00 | 0.00 | 0.00 | 68 | 1007.8 |
| 20260509180734 | 28 | 260 | 6.4 | 9.7 | 0.00 | 0.00 | 0.00 | 70 | 1007.9 |
| 20260509175733 | 28 | 283 | 3.2 | 8.0 | 0.00 | 0.00 | 0.00 | 70 | 1008.3 |
| 20260509172732 | 29 | 251 | 8.0 | 11.3 | 0.00 | 0.00 | 0.00 | 73 | 1008.2 |
| 20260509170732 | 27 | 247 | 1.6 | 4.8 | 0.00 | 0.00 | 0.00 | 77 | 1008.1 |
| 20260509165832 | 27 | 224 | 6.4 | 12.9 | 0.00 | 0.00 | 0.00 | 78 | 1007.9 |
| 20260509164834 | 27 | 223 | 3.2 | 6.4 | 0.00 | 0.00 | 0.00 | 79 | 1008.1 |
| 20260509163832 | 27 | 247 | 0.0 | 1.6 | 0.00 | 0.00 | 0.00 | 81 | 1008.2 |
| 20260509163750 | 27 | 247 | 3.2 | 4.8 | 0.00 | 0.00 | 0.00 | 81 | 1008.1 |
| 20260509161731 | 26 | 360 | 3.2 | 3.2 | 0.00 | 0.00 | 0.00 | 80 | 1008.5 |
| 20260509161632 | 26 | 360 | 3.2 | 4.8 | 0.00 | 0.00 | 0.00 | 81 | 1008.5 |
| 20260509161533 | 26 | 360 | 3.2 | 6.4 | 0.00 | 0.00 | 0.00 | 81 | 1008.5 |
| 20260509160531 | 26 | 263 | 1.6 | 4.8 | 0.00 | 0.00 | 0.00 | 83 | 1008.4 |
| 20260509160433 | 26 | 270 | 0.0 | 0.0 | 0.00 | 0.00 | 0.00 | 83 | 1008.4 |
| 20260509160350 | 26 | 270 | 0.0 | 0.0 | 0.00 | 0.00 | 0.00 | 83 | 1008.5 |
| 20260509155432 | 26 | 337 | 0.0 | 3.2 | 0.00 | 0.00 | 0.00 | 83 | 1008.6 |
| 20260509154434 | 26 | 152 | 0.0 | 1.6 | 0.00 | 0.00 | 0.00 | 87 | 1008.7 |
| 20260509153433 | 26 | 157 | 0.0 | 1.6 | 0.00 | 0.00 | 0.00 | 88 | 1008.8 |
| 20260509152431 | 25 | 157 | 0.0 | 0.0 | 0.00 | 0.00 | 0.00 | 88 | 1008.9 |
| 20260509151433 | 25 | 157 | 3.2 | 4.8 | 0.00 | 0.00 | 0.00 | 90 | 1008.8 |
| 20260509150432 | 25 | 157 | 3.2 | 4.8 | 0.00 | 0.00 | 0.00 | 92 | 1008.7 |
| 20260509145531 | 25 | 135 | 0.0 | 1.6 | 0.00 | 0.00 | 0.00 | 92 | 1008.7 |
| 20260509143532 | 25 | 180 | 0.0 | 1.6 | 0.00 | 0.00 | 0.00 | 92 | 1008.3 |
| 20260509142532 | 25 | 180 | 0.0 | 0.0 | 0.00 | 0.00 | 0.00 | 92 | 1008.3 |
| 20260509141533 | 25 | 180 | 1.6 | 3.2 | 0.00 | 0.00 | 0.00 | 93 | 1008.1 |
| 20260509140532 | 25 | 180 | 0.0 | 0.0 | 0.00 | 0.00 | 0.00 | 92 | 1008.2 |
| 20260509134533 | 25 | 225 | 0.0 | 0.0 | 0.00 | 0.00 | 0.00 | 93 | 1008.6 |
| 20260509133431 | 25 | 225 | 0.0 | 0.0 | 0.00 | 0.00 | 0.00 | 94 | 1008.5 |
| 20260509132434 | 24 | 225 | 0.0 | 0.0 | 0.00 | 0.00 | 0.00 | 94 | 1008.6 |
| 20260509131432 | 24 | 225 | 0.0 | 0.0 | 0.00 | 0.00 | 0.00 | 93 | 1008.8 |
| 20260509130431 | 24 | 225 | 0.0 | 1.6 | 0.00 | 0.00 | 0.00 | 94 | 1008.6 |
| 20260509125434 | 23 | 225 | 0.0 | 0.0 | 0.00 | 0.00 | 0.00 | 94 | 1008.8 |
| 20260509123535 | 23 | 225 | 0.0 | 0.0 | 0.00 | 0.00 | 0.00 | 94 | 1008.7 |
| 20260509122632 | 23 | 225 | 0.0 | 0.0 | 0.00 | 0.00 | 0.00 | 94 | 1008.9 |
| 20260509122533 | 23 | 225 | 0.0 | 0.0 | 0.00 | 0.00 | 0.00 | 94 | 1008.7 |
| 20260509120647 | 23 | 225 | 0.0 | 0.0 | 0.00 | 0.00 | 0.00 | 94 | 1008.1 |
| 20260509115730 | 23 | 225 | 0.0 | 0.0 | 0.00 | 0.00 | 0.00 | 94 | 1007.9 |
| 20260509114732 | 23 | 225 | 1.6 | 3.2 | 0.00 | 0.00 | 0.00 | 94 | 1007.9 |
| 20260509105831 | 23 | 45 | 0.0 | 0.0 | 0.00 | 0.00 | 0.00 | 94 | 1008.2 |
| 20260509104832 | 23 | 22 | 0.0 | 1.6 | 0.00 | 0.00 | 0.00 | 94 | 1008.6 |
| 20260509103834 | 23 | 22 | 0.0 | 0.0 | 0.00 | 0.00 | 0.00 | 94 | 1008.4 |
| 20260509102834 | 23 | 22 | 0.0 | 1.6 | 0.00 | 0.00 | 0.00 | 94 | 1008.1 |
| 20260509101831 | 23 | 22 | 0.0 | 0.0 | 0.00 | 0.00 | 0.00 | 94 | 1007.8 |
| 20260509095833 | 23 | 337 | 0.0 | 0.0 | 0.00 | 0.00 | 0.00 | 94 | 1007.1 |
| 20260509095731 | 23 | 337 | 0.0 | 0.0 | 0.00 | 0.00 | 0.00 | 94 | 1007.2 |
| 20260509094733 | 23 | 337 | 0.0 | 0.0 | 0.00 | 0.00 | 0.00 | 94 | 1007.2 |
| 20260509093830 | 23 | 337 | 0.0 | 0.0 | 0.00 | 0.00 | 0.00 | 94 | 1007.4 |
| 20260509092832 | 23 | 337 | 0.0 | 0.0 | 0.00 | 0.00 | 0.00 | 94 | 1007.9 |
| 20260509091831 | 23 | 337 | 0.0 | 0.0 | 0.00 | 0.00 | 0.00 | 94 | 1007.8 |
| 20260509090833 | 23 | 337 | 0.0 | 0.0 | 0.00 | 0.00 | 0.00 | 94 | 1007.9 |
| 20260509085832 | 23 | 337 | 0.0 | 1.6 | 0.00 | 0.00 | 0.00 | 94 | 1008.0 |
| 20260509085732 | 23 | 340 | 1.6 | 4.8 | 0.00 | 0.00 | 0.00 | 94 | 1008.0 |
| 20260509084731 | 23 | 347 | 1.6 | 3.2 | 0.00 | 0.00 | 0.00 | 94 | 1007.9 |
| 20260509084631 | 23 | 337 | 1.6 | 3.2 | 0.00 | 0.00 | 0.00 | 94 | 1008.0 |
| 20260509083632 | 23 | 15 | 1.6 | 4.8 | 0.00 | 0.00 | 0.00 | 94 | 1007.8 |
| 20260509082731 | 23 | 157 | 0.0 | 0.0 | 0.00 | 0.00 | 0.00 | 94 | 1007.9 |
| 20260509081732 | 23 | 157 | 0.0 | 0.0 | 0.00 | 0.00 | 0.00 | 94 | 1007.7 |
| 20260509080732 | 23 | 157 | 1.6 | 3.2 | 0.00 | 0.00 | 0.00 | 94 | 1007.7 |
| 20260509080633 | 23 | 157 | 3.2 | 4.8 | 0.00 | 0.00 | 0.00 | 94 | 1007.7 |
| 20260509075631 | 23 | 157 | 3.2 | 4.8 | 0.00 | 0.00 | 0.00 | 94 | 1007.7 |
| 20260509075532 | 23 | 157 | 4.8 | 6.4 | 0.00 | 0.00 | 0.00 | 94 | 1007.5 |
| 20260509074532 | 23 | 157 | 4.8 | 6.4 | 0.00 | 0.00 | 0.00 | 94 | 1007.8 |
| 20260509072631 | 23 | 180 | 3.2 | 4.8 | 0.00 | 0.00 | 0.00 | 94 | 1008.0 |
| 20260509070732 | 23 | 180 | 0.0 | 1.6 | 0.00 | 0.00 | 0.00 | 94 | 1008.1 |
| 20260509065731 | 23 | 180 | 0.0 | 0.0 | 0.00 | 0.00 | 0.00 | 94 | 1008.1 |
| 20260509065632 | 23 | 180 | 0.0 | 0.0 | 0.00 | 0.00 | 0.00 | 94 | 1008.1 |
| 20260509064730 | 23 | 180 | 1.6 | 1.6 | 0.00 | 0.00 | 0.00 | 94 | 1008.1 |
| 20260509063731 | 23 | 180 | 1.6 | 3.2 | 0.00 | 0.00 | 0.00 | 94 | 1008.2 |
| 20260509062732 | 23 | 180 | 1.6 | 1.6 | 0.00 | 0.00 | 0.00 | 94 | 1008.2 |
| 20260509062630 | 23 | 180 | 0.0 | 1.6 | 0.00 | 0.00 | 0.00 | 94 | 1008.0 |
| 20260509061633 | 23 | 180 | 0.0 | 1.6 | 0.00 | 0.00 | 0.00 | 94 | 1008.3 |
| 20260509061530 | 23 | 180 | 0.0 | 0.0 | 0.00 | 0.00 | 0.00 | 94 | 1008.3 |
| 20260509061434 | 23 | 180 | 0.0 | 1.6 | 0.00 | 0.00 | 0.00 | 94 | 1008.5 |
| 20260509060531 | 23 | 157 | 1.6 | 3.2 | 0.00 | 0.00 | 0.00 | 94 | 1008.4 |
| 20260509060431 | 23 | 157 | 3.2 | 3.2 | 0.00 | 0.00 | 0.00 | 94 | 1008.3 |
| 20260509055431 | 23 | 157 | 3.2 | 4.8 | 0.00 | 0.00 | 0.00 | 94 | 1008.5 |
| 20260509054433 | 23 | 180 | 3.2 | 3.2 | 0.00 | 0.00 | 0.00 | 94 | 1008.5 |
| 20260509053330 | 23 | 202 | 3.2 | 4.8 | 0.00 | 0.00 | 0.00 | 94 | 1008.6 |
| 20260509052331 | 23 | 202 | 0.0 | 0.0 | 0.00 | 0.00 | 0.00 | 94 | 1008.6 |
| 20260509050331 | 23 | 180 | 3.2 | 6.4 | 0.00 | 0.00 | 0.00 | 94 | 1008.4 |
| 20260509045429 | 23 | 202 | 1.6 | 3.2 | 0.00 | 0.00 | 0.00 | 94 | 1008.6 |
| 20260509045330 | 23 | 192 | 4.8 | 8.0 | 0.00 | 0.00 | 0.00 | 94 | 1008.5 |
| 20260509044429 | 23 | 190 | 8.0 | 11.3 | 0.00 | 0.00 | 0.00 | 94 | 1008.5 |
| 20260509043430 | 22 | 167 | 3.2 | 6.4 | 0.00 | 0.00 | 0.00 | 94 | 1008.5 |
| 20260509042431 | 22 | 180 | 6.4 | 9.7 | 0.00 | 0.00 | 0.00 | 93 | 1008.3 |
| 20260509041431 | 22 | 157 | 6.4 | 8.0 | 0.00 | 0.00 | 0.00 | 93 | 1008.5 |
| 20260509040430 | 22 | 165 | 3.2 | 6.4 | 0.00 | 0.00 | 0.00 | 94 | 1008.4 |
| 20260509034431 | 22 | 146 | 6.4 | 9.7 | 0.00 | 0.00 | 0.00 | 93 | 1008.2 |
| 20260509033431 | 22 | 163 | 4.8 | 6.4 | 0.00 | 0.00 | 0.00 | 94 | 1008.3 |
| 20260509032430 | 22 | 164 | 4.8 | 8.0 | 0.00 | 0.00 | 0.00 | 93 | 1008.2 |
| 20260509031431 | 22 | 199 | 1.6 | 3.2 | 0.00 | 0.00 | 0.00 | 93 | 1008.1 |
| 20260509030431 | 22 | 180 | 6.4 | 12.9 | 0.00 | 0.00 | 0.00 | 93 | 1008.0 |
| 20260509030329 | 22 | 180 | 4.8 | 11.3 | 0.00 | 0.00 | 0.00 | 93 | 1008.0 |
| 20260509025329 | 22 | 156 | 8.0 | 11.3 | 0.00 | 0.00 | 0.00 | 93 | 1007.8 |
| 20260509024330 | 22 | 170 | 4.8 | 11.3 | 0.00 | 0.00 | 0.00 | 93 | 1008.0 |
| 20260509023330 | 22 | 171 | 4.8 | 8.0 | 0.00 | 0.00 | 0.00 | 93 | 1007.7 |
| 20260509022331 | 22 | 131 | 11.3 | 17.7 | 0.00 | 0.00 | 0.00 | 93 | 1007.4 |
| 20260509020429 | 22 | 157 | 3.2 | 4.8 | 0.00 | 0.00 | 0.00 | 93 | 1007.8 |
| 20260509020330 | 22 | 157 | 4.8 | 6.4 | 0.00 | 0.00 | 0.00 | 93 | 1007.7 |
| 20260509015429 | 22 | 145 | 8.0 | 11.3 | 0.00 | 0.00 | 0.00 | 93 | 1007.4 |
| 20260509013530 | 22 | 139 | 9.7 | 11.3 | 0.00 | 0.00 | 0.00 | 93 | 1007.4 |
| 20260509012530 | 23 | 149 | 6.4 | 9.7 | 0.00 | 0.00 | 0.00 | 93 | 1007.5 |
| 20260509011628 | 23 | 135 | 12.9 | 17.7 | 0.00 | 0.00 | 0.00 | 93 | 1007.3 |
| 20260509010631 | 23 | 157 | 6.4 | 8.0 | 0.00 | 0.00 | 0.00 | 93 | 1007.2 |
| 20260509005631 | 23 | 151 | 6.4 | 9.7 | 0.00 | 0.00 | 0.00 | 93 | 1007.0 |
| 20260509005529 | 23 | 155 | 4.8 | 6.4 | 0.00 | 0.00 | 0.00 | 93 | 1007.1 |
| 20260509004546 | 22 | 155 | 6.4 | 11.3 | 0.00 | 0.00 | 0.00 | 92 | 1007.3 |
| 20260509003628 | 23 | 157 | 8.0 | 9.7 | 0.00 | 0.00 | 0.00 | 92 | 1007.3 |
| 20260509002631 | 22 | 149 | 8.0 | 9.7 | 0.00 | 0.00 | 0.00 | 92 | 1007.3 |
| 20260509001630 | 22 | 141 | 8.0 | 11.3 | 0.00 | 0.00 | 0.00 | 92 | 1007.5 |
| 20260509000631 | 23 | 151 | 9.7 | 12.9 | 0.00 | 0.00 | 0.00 | 91 | 1007.3 |